This is the latest recevied weather packets stored in our database for station/object LA3SP-1. If no packets are shown the sender has not sent any weather packets the latest 10 day(s).
| Time | Temp. | Humidity | Pressure | Rain* | Wind** | Luminosity | Snow |
|---|---|---|---|---|---|---|---|
| 1777563908 | 12.22° C | 49% | 1022.8 hPa | 0 mm | - | - | - |
| 1777563306 | 12.22° C | 49% | 1023.1 hPa | 0 mm | - | - | - |
| 1777562705 | 12.78° C | 48% | 1023 hPa | 0 mm | - | - | - |
| 1777562103 | 12.78° C | 47% | 1023.1 hPa | 0 mm | - | - | - |
| 1777561502 | 13.33° C | 47% | 1023.1 hPa | 0 mm | - | - | - |
| 1777560901 | 13.33° C | 45% | 1023.1 hPa | 0 mm | - | - | - |
| 1777559097 | 13.33° C | 42% | 1023.4 hPa | 0 mm | - | - | - |
| 1777558495 | 13.33° C | 41% | 1023.2 hPa | 0 mm | - | - | - |
| 1777557894 | 13.33° C | 40% | 1023.5 hPa | 0 mm | - | - | - |
| 1777557292 | 13.89° C | 39% | 1023.4 hPa | 0 mm | - | - | - |
| 1777556691 | 14.44° C | 40% | 1023.4 hPa | 0 mm | - | - | - |
| 1777556089 | 14.44° C | 38% | 1023.6 hPa | 0 mm | - | - | - |
| 1777554887 | 13.89° C | 39% | 1023.7 hPa | 0 mm | - | - | - |
| 1777554286 | 14.44° C | 37% | 1023.7 hPa | 0 mm | - | - | - |
| 1777553684 | 14.44° C | 38% | 1023.5 hPa | 0 mm | - | - | - |
| 1777553083 | 13.33° C | 40% | 1023.7 hPa | 0 mm | - | - | - |
| 1777552481 | 13.89° C | 38% | 1023.7 hPa | 0 mm | - | - | - |
| 1777551880 | 13.89° C | 38% | 1023.7 hPa | 0 mm | - | - | - |
| 1777551278 | 13.89° C | 38% | 1023.7 hPa | 0 mm | - | - | - |
| 1777550076 | 13.33° C | 39% | 1023.8 hPa | 0 mm | - | - | - |
| 1777549474 | 13.33° C | 39% | 1023.8 hPa | 0 mm | - | - | - |
| 1777548873 | 13.33° C | 38% | 1023.8 hPa | 0 mm | - | - | - |
| 1777548271 | 13.89° C | 37% | 1023.9 hPa | 0 mm | - | - | - |
| 1777547670 | 13.89° C | 37% | 1023.9 hPa | 0 mm | - | - | - |
| 1777547068 | 14.44° C | 37% | 1023.8 hPa | 0 mm | - | - | - |
* Rain latest 24 hours (hover to see other rain measurements)
** Current wind speed in m/s (hover to see current wind gust speed)